073  
ASUS45 KCYS 241610  
RWRWY  
 
WYOMING REGIONAL WEATHER ROUNDUP  
NATIONAL WEATHER SERVICE CHEYENNE WY  
1000 AM MDT SUN JUN 24 2018  
 
NOTE: "FAIR" INDICATES FEW OR NO CLOUDS BELOW 12,000 FEET  
WITH NO SIGNIFICANT WEATHER AND/OR S TO VISIBILITY
.  
 
WYZ001-241700-  
YELLOWSTONE NATIONAL PARK  
 
CITY SKY/WX TMP DP RH WIND PRES REMARKS
 
LK YELLOWSTONE N/A 46 38 73 SE6 30.28S  
W YELLOWSTONE NOT AVBL  
 

 
WYZ002>013-054>058-071-098>099-241700-  
NORTHERN WYOMING  
 
CITY SKY/WX TMP DP RH WIND PRES REMARKS
 
JACKSON FAIR 55 40 56 NE9 30.21F  
CODY FAIR 61 42 49 CALM 30.16R  
GREYBULL CLOUDY 66 47 50 NW7 30.08S  
WORLAND FAIR 65 49 56 VRB7 30.09R  
SHERIDAN PTSUNNY 63 51 65 NW15 30.08R  
BUFFALO PTSUNNY 58 49 72 N15 N/A  
GILLETTE LGT RAIN 53 52 96 W13 30.07S FOG  
HULETT HVY RAIN 54 52 94 SW6 30.06R VSB 1  
NEWCASTLE HVY RAIN 52 50 93 N12G26 30.06F  
 

 
WYZ014>020-022>026-101>103-241700-  
CENTRAL WYOMING  
 
CITY SKY/WX TMP DP RH WIND PRES REMARKS
 
BIG PINEY FAIR 58 35 42 N6 30.21R  
PINEDALE FAIR 54 37 54 SE5 30.22S  
DUBOIS FAIR 54 32 43 CALM 30.20S  
LANDER FAIR 59 45 59 CALM 30.16R  
RIVERTON CLOUDY 60 44 55 NW10G16 30.16R  
CASPER PTSUNNY 53 49 86 SW6 30.13R  
DOUGLAS CLOUDY 56 48 74 NW13 30.11R  
 

 
WYZ021-027>030-104>119-241700-  
SOUTHERN WYOMING  
 
CITY SKY/WX TMP DP RH WIND PRES REMARKS
 
EVANSTON FAIR 57 38 48 VRB5 30.23S  
KEMMERER FAIR 57 32 38 W5 30.22S  
FORT BRIDGER FAIR 62 33 33 W10G17 30.25R  
ROCK SPRINGS FAIR 56 38 50 N5 30.20F  
DIXON CLOUDY 58 38 47 CALM 30.19R  
RAWLINS FAIR 56 43 61 VRB3 30.18R  
SARATOGA PTSUNNY 54 43 66 N6 30.18S  
LARAMIE CLOUDY 52 44 74 N14 30.15S  
CHEYENNE CLOUDY 55 48 77 N9 30.11R  
TORRINGTON FAIR 62 53 72 N14 30.04R  
PINE BLUFFS HVY RAIN 54 52 94 NW9G16 30.10R  
 

 
 
 
CLICK HERE TO GO TO PREVIOUS BULLETINS.

The Nexlab WY Page Main Text Page